Torna al catalogo

FENGYUN 1C DEB

AttivoSSO
NORAD 31224·DEBRIS·🇨🇳 China

Lanciato May 10, 1999 da Taiyuan Satellite Launch Center

Loading…

Prossimi Passaggi (prossime 24 ore)

TLE

AggiornatoSource: Space-Track

Epoca: Sep 13, 2026, 04:43 UTC

1 31224U 99025BLE 26256.19665602  .00000709  00000-0  25744-3 0  9994
2 31224  98.3913 242.7144 0158096  72.6219 349.3911 14.29457571731711

Traccia FENGYUN 1C DEB in tempo reale con AllMySat

Download on the App Store